Погода в Жуис-ди-Фора

Бразилия     21°45′12″S   43°21′04″W
темп.,
°C
ветер,
м/с
пор.,
м/с
влажн.,
%
обл.,
%
осадки,
мм/ч
давл.,
гПа
погр.,
м
27 февраля, сб
сб2700:00+18ю0199100 1.0 101624
03:00+18вюв0098100 1.3 101424
06:00+18ссв1196100 0.6 101523
09:00+22св2388100 0.6 1016438
12:00+23ссв2285100 0.3 1016592
15:00+24св3377100 0.4 10141004
18:00+21в2493100 0.1 1014132
21:00+19всв129599 0.3 101525
28 февраля, вс
вс2800:00+18св289798 0.1 1015332
03:00+18всв2119599 0.1 1014387
06:00+17всв2796100 0.0 1015250
09:00+21св3587100 0.0 1016525
12:00+24всв4573100 0.1 1015987
15:00+24всв457683 0.1 1013888
18:00+21в2591100 0.0 1012188
21:00+19всв299797 0.0 1015361
1 марта, пн
пн100:00+18всв2109849 0.0 1015450
03:00+18всв279854 0.0 1014441
06:00+19св1497100 0.1 1014242
09:00+22св1285100 0.2 1015512
12:00+24ссв237698 0.7 1014922
15:00+25св337375 1.1 1012994
18:00+21всв249338 0.7 1012164
21:00+19св269769 0.8 1014213
2 марта, вт
вт200:00+18всв129880 0.0 101537
03:00+17св119889 0.0 101428
06:00+18св129996 0.0 101557
09:00+21с369097 0.1 1016603
12:00+24с457770 0.1 1016892
15:00+25ссв357248 0.1 1013998
18:00+21св23820 0.0 101355
21:00+19св12932 0.0 101627
3 марта, ср
ср300:00+18ссв12988 0.1 101646
03:00+18с119622 0.1 101523
06:00+17ссз119697 0.0 101723
09:00+22с478779 0.3 1018519
12:00+25ссв4583100 1.4 1016782
15:00+25ссв358498 4.3 1014784
18:00+21св2290100 3.9 101439
21:00+19ссв1186100 4.1 101723